DW8231 Weather Reports


Display with metric or nautical units.
time (UTC)temp
F
wind
direction
speed
MPH
gust
MPH
rain 1hr
in
rain 24hr
in
rain mn
in
humidity
%
barometer
mb
20260506145513 41 281 5.0 14.0 0.00 0.00 0.00 53 1016.6
20260506145013 41 246 3.0 13.0 0.00 0.00 0.00 54 1016.6
20260506144516 41 257 7.0 13.0 0.00 0.00 0.00 54 1016.6
20260506144015 41 298 3.0 11.0 0.00 0.00 0.00 53 1016.5
20260506143512 41 275 5.0 14.0 0.00 0.00 0.00 53 1016.6
20260506143014 41 276 5.0 14.0 0.00 0.00 0.00 53 1016.5
20260506142512 41 296 6.0 14.0 0.00 0.00 0.00 53 1016.5
20260506142010 41 232 7.0 14.0 0.00 0.00 0.00 53 1016.5
20260506141512 41 296 4.0 11.0 0.00 0.00 0.00 53 1016.6
20260506141014 41 275 5.0 9.0 0.00 0.00 0.00 55 1016.5
20260506140513 41 259 4.0 14.0 0.00 0.00 0.00 54 1016.5
20260506135508 41 298 3.0 11.0 0.00 0.00 0.00 58 1016.5
20260506135009 40 272 2.0 10.0 0.00 0.00 0.00 57 1016.4
20260506134506 40 286 2.0 14.0 0.00 0.00 0.00 58 1016.4
20260506134009 39 281 3.0 14.0 0.00 0.00 0.00 57 1016.4
20260506133504 39 304 3.0 12.0 0.00 0.00 0.00 58 1016.3
20260506133002 39 292 4.0 12.0 0.00 0.00 0.00 59 1016.3
20260506132501 39 296 4.0 10.0 0.00 0.00 0.00 59 1016.4
20260506132100 39 288 3.0 9.0 0.00 0.00 0.00 61 1016.2
20260506131559 38 291 3.0 9.0 0.00 0.00 0.00 61 1016.3
20260506131059 38 294 3.0 9.0 0.00 0.00 0.00 62 1016.2
20260506130556 38 286 2.0 7.0 0.00 0.00 0.00 63 1016.2
20260506125554 37 288 3.0 10.0 0.00 0.00 0.00 64 1016.0
20260506125053 37 290 2.0 10.0 0.00 0.00 0.00 65 1015.9
20260506124552 37 284 2.0 5.0 0.00 0.00 0.00 67 1015.8
20260506124051 36 284 1.0 5.0 0.00 0.00 0.00 68 1015.7
20260506123548 36 284 1.0 4.0 0.00 0.00 0.00 68 1015.8
20260506123048 35 284 1.0 5.0 0.00 0.00 0.00 70 1015.7
20260506122547 35 281 2.0 4.0 0.00 0.00 0.00 71 1015.8
20260506122044 34 284 1.0 5.0 0.00 0.00 0.00 72 1015.7
20260506121543 34 284 2.0 5.0 0.00 0.00 0.00 73 1015.7
20260506121042 33 284 1.0 4.0 0.00 0.00 0.00 74 1015.6
20260506120541 33 312 1.0 3.0 0.00 0.00 0.00 74 1015.5
20260506115538 33 317 0.0 3.0 0.00 0.00 0.00 73 1015.4
20260506115036 33 319 0.0 2.0 0.00 0.00 0.00 73 1015.3
20260506114536 33 319 0.0 2.0 0.00 0.00 0.00 73 1015.2
20260506114036 33 319 0.0 2.0 0.00 0.00 0.00 73 1015.2
20260506113535 33 319 0.0 2.0 0.00 0.00 0.00 73 1015.2
20260506113040 33 319 0.0 2.0 0.00 0.00 0.00 73 1015.2
20260506112535 33 319 0.0 2.0 0.00 0.00 0.00 73 1015.1
20260506112037 33 319 0.0 2.0 0.00 0.00 0.00 73 1015.1
20260506111534 33 319 0.0 2.0 0.00 0.00 0.00 73 1015.1
20260506111034 33 319 0.0 2.0 0.00 0.00 0.00 73 1015.0
20260506110534 33 319 0.0 2.0 0.00 0.00 0.00 73 1015.1
20260506105534 32 319 0.0 2.0 0.00 0.00 0.00 74 1015.1
20260506105037 32 319 0.0 2.0 0.00 0.00 0.00 74 1015.1
20260506104534 32 320 0.0 2.0 0.00 0.00 0.00 74 1015.1
20260506104032 32 320 0.0 2.0 0.00 0.00 0.00 74 1014.9
20260506103531 32 321 0.0 2.0 0.00 0.00 0.00 74 1014.9
20260506103031 32 322 0.0 2.0 0.00 0.00 0.00 74 1014.8
20260506102530 32 322 0.0 2.0 0.00 0.00 0.00 74 1014.8
20260506102030 32 322 0.0 2.0 0.00 0.00 0.00 74 1014.7
20260506101529 32 322 0.0 2.0 0.00 0.00 0.00 74 1014.7
20260506101029 32 322 0.0 1.0 0.00 0.00 0.00 74 1014.6
20260506100529 32 322 0.0 0.0 0.00 0.00 0.00 74 1014.6
20260506095529 32 322 0.0 0.0 0.00 0.00 0.00 73 1014.7
20260506095028 32 322 0.0 1.0 0.00 0.00 0.00 73 1014.6
20260506094529 32 322 0.0 1.0 0.00 0.00 0.00 73 1014.6
20260506094030 32 322 0.0 0.0 0.00 0.00 0.00 73 1014.5
20260506093529 32 322 0.0 0.0 0.00 0.00 0.00 73 1014.6
20260506093027 32 322 0.0 0.0 0.00 0.00 0.00 73 1014.7
20260506092530 32 322 0.0 1.0 0.00 0.00 0.00 73 1014.6
20260506092027 32 322 0.0 2.0 0.00 0.00 0.00 73 1014.6
20260506091528 32 322 0.0 2.0 0.00 0.00 0.00 74 1014.6
20260506091027 32 322 0.0 2.0 0.00 0.00 0.00 73 1014.6
20260506090525 32 322 0.0 1.0 0.00 0.00 0.00 73 1014.5
20260506085526 32 322 0.0 1.0 0.00 0.00 0.00 73 1014.4
20260506085023 32 322 0.0 0.0 0.00 0.00 0.00 72 1014.4
20260506084523 32 322 0.0 0.0 0.00 0.00 0.00 72 1014.3
20260506084023 32 322 0.0 0.0 0.00 0.00 0.00 72 1014.3
20260506083522 33 322 0.0 0.0 0.00 0.00 0.00 72 1014.3
20260506083021 33 322 0.0 0.0 0.00 0.00 0.00 72 1014.4
20260506082521 33 322 0.0 0.0 0.00 0.00 0.00 72 1014.5
20260506082020 33 322 0.0 0.0 0.00 0.00 0.00 72 1014.5
20260506081521 33 322 0.0 1.0 0.00 0.00 0.00 71 1014.5
20260506081019 33 322 0.0 1.0 0.00 0.00 0.00 71 1014.5
20260506080518 33 322 0.0 1.0 0.00 0.00 0.00 70 1014.3
20260506073515 35 322 0.0 0.0 0.00 0.00 0.00 68 1014.0
20260506073014 35 322 0.0 0.0 0.00 0.00 0.00 68 1014.0
20260506072514 35 322 0.0 1.0 0.00 0.00 0.00 68 1014.0
20260506072013 35 322 0.0 1.0 0.00 0.00 0.00 67 1014.0
20260506071513 35 322 0.0 1.0 0.00 0.00 0.00 67 1014.0
20260506071011 35 322 0.0 1.0 0.00 0.00 0.00 66 1013.9
20260506070513 35 322 0.0 2.0 0.00 0.00 0.00 66 1014.0
20260506062508 36 322 1.0 3.0 0.00 0.00 0.00 66 1013.7
20260506062007 36 288 0.0 1.0 0.00 0.00 0.00 65 1013.8
20260506061506 36 288 0.0 1.0 0.00 0.00 0.00 65 1013.8
20260506061009 36 288 0.0 1.0 0.00 0.00 0.00 64 1013.8
20260506060506 36 288 0.0 1.0 0.00 0.00 0.00 63 1013.7
20260506051057 39 286 2.0 5.0 0.00 0.00 0.00 57 1013.1
20260506050557 39 287 1.0 7.0 0.00 0.00 0.00 57 1013.1
20260506045055 39 290 1.0 5.0 0.00 0.00 0.00 57 1013.0
20260506044555 40 290 2.0 7.0 0.00 0.00 0.00 57 1012.9
20260506044056 39 292 2.0 8.0 0.00 0.00 0.00 57 1012.9
20260506043554 39 294 2.0 7.0 0.00 0.00 0.00 57 1013.0
20260506043054 40 287 1.0 4.0 0.00 0.00 0.00 57 1012.9
20260506042554 40 287 1.0 4.0 0.00 0.00 0.00 57 1012.9
20260506042054 40 287 1.0 4.0 0.00 0.00 0.00 57 1012.9
20260506041556 40 287 2.0 4.0 0.00 0.00 0.00 57 1012.9
20260506041053 40 287 1.0 4.0 0.00 0.00 0.00 56 1012.8
20260506040553 40 288 1.0 5.0 0.00 0.00 0.00 56 1012.8
20260506035555 41 288 1.0 3.0 0.00 0.00 0.00 56 1012.8
20260506035053 41 288 1.0 4.0 0.00 0.00 0.00 55 1012.7
20260506034607 41 288 1.0 4.0 0.00 0.00 0.00 54 1012.7
20260506034056 41 288 1.0 5.0 0.00 0.00 0.00 54 1012.7
20260506033653 41 288 2.0 5.0 0.00 0.00 0.00 54 1012.7
20260506033051 41 288 1.0 5.0 0.00 0.00 0.00 53 1012.6
20260506032554 42 288 2.0 5.0 0.00 0.00 0.00 53 1012.6
20260506032053 42 288 2.0 7.0 0.00 0.00 0.00 52 1012.6
20260506031550 42 288 2.0 5.0 0.00 0.00 0.00 52 1012.7
20260506031050 42 289 2.0 9.0 0.00 0.00 0.00 52 1012.6
20260506030549 42 290 3.0 9.0 0.00 0.00 0.00 52 1012.5
20260506025553 43 291 2.0 7.0 0.00 0.00 0.00 51 1012.3
20260506025050 43 292 1.0 5.0 0.00 0.00 0.00 50 1012.3
20260506024606 43 292 1.0 8.0 0.00 0.00 0.00 50 1012.2
20260506024048 44 292 2.0 10.0 0.00 0.00 0.00 49 1012.1
20260506023548 44 294 3.0 10.0 0.00 0.00 0.00 48 1012.0
20260506023146 44 294 3.0 12.0 0.00 0.00 0.00 48 1012.0
20260506022546 44 290 4.0 10.0 0.00 0.00 0.00 48 1011.9
20260506022045 45 294 3.0 9.0 0.00 0.00 0.00 48 1011.9
20260506021545 45 303 3.0 12.0 0.00 0.00 0.00 47 1011.7
20260506021044 45 292 3.0 12.0 0.00 0.00 0.00 47 1011.6
20260506020543 45 292 4.0 8.0 0.00 0.00 0.00 47 1011.5
20260506015544 45 290 3.0 8.0 0.00 0.00 0.00 46 1011.3
20260506015042 46 292 2.0 7.0 0.00 0.00 0.00 45 1011.2
20260506014541 46 292 3.0 9.0 0.00 0.00 0.00 45 1011.2
20260506014042 46 293 3.0 9.0 0.00 0.00 0.00 44 1011.0
20260506013542 46 288 3.0 8.0 0.00 0.00 0.00 44 1011.0
20260506013138 47 288 1.0 10.0 0.00 0.00 0.00 44 1010.9
20260506012538 47 289 4.0 10.0 0.00 0.00 0.00 44 1010.9
20260506012038 47 284 3.0 9.0 0.00 0.00 0.00 43 1010.9
20260506011541 47 283 2.0 8.0 0.00 0.00 0.00 43 1010.8
20260506011037 47 275 3.0 11.0 0.00 0.00 0.00 43 1010.8
20260506010537 47 263 4.0 11.0 0.00 0.00 0.00 43 1010.8
20260506005537 47 286 2.0 10.0 0.00 0.00 0.00 43 1010.8
20260506005037 47 268 3.0 10.0 0.00 0.00 0.00 43 1010.7
20260506004537 47 278 3.0 9.0 0.00 0.00 0.00 43 1010.7
20260506004036 47 262 3.0 10.0 0.00 0.00 0.00 42 1010.7
20260506003536 47 293 5.0 10.0 0.00 0.00 0.00 42 1010.6
20260506003036 47 283 4.0 12.0 0.00 0.00 0.00 41 1010.6
20260506002535 47 279 5.0 12.0 0.00 0.00 0.00 42 1010.5
20260506002037 48 273 5.0 11.0 0.00 0.00 0.00 41 1010.5
20260506001538 48 280 4.0 13.0 0.00 0.00 0.00 41 1010.5
20260506001035 48 329 6.0 13.0 0.00 0.00 0.00 41 1010.5
20260506000535 48 279 5.0 14.0 0.00 0.00 0.00 41 1010.3
20260505235536 48 291 4.0 11.0 0.00 0.00 0.00 42 1010.3
20260505235035 48 294 4.0 12.0 0.00 0.00 0.00 41 1010.3
20260505234537 48 286 3.0 7.0 0.00 0.00 0.00 42 1010.3
20260505234036 48 286 3.0 11.0 0.00 0.00 0.00 42 1010.3
20260505233536 48 290 4.0 11.0 0.00 0.00 0.00 42 1010.2
20260505233035 48 295 3.0 12.0 0.00 0.00 0.00 42 1010.2
20260505232535 48 292 5.0 12.0 0.00 0.00 0.00 41 1010.2
20260505232035 48 263 3.0 13.0 0.00 0.00 0.00 42 1010.2
20260505231537 49 290 4.0 13.0 0.00 0.00 0.00 41 1010.2
20260505231036 49 257 3.0 10.0 0.00 0.00 0.00 42 1010.2
20260505230534 49 278 6.0 13.0 0.00 0.00 0.00 41 1010.2
20260505225535 49 275 7.0 15.0 0.00 0.00 0.00 41 1010.2
20260505225038 49 296 6.0 15.0 0.00 0.00 0.00 41 1010.2
20260505224535 49 279 4.0 14.0 0.00 0.00 0.00 41 1010.2
20260505224038 49 279 4.0 14.0 0.00 0.00 0.00 40 1010.2
20260505223533 49 286 4.0 12.0 0.00 0.00 0.00 40 1010.1
20260505223043 49 282 7.0 13.0 0.00 0.00 0.00 41 1010.1
20260505222534 49 269 4.0 13.0 0.00 0.00 0.00 41 1010.1
20260505222034 49 289 3.0 16.0 0.00 0.00 0.00 41 1010.2
20260505221536 49 288 7.0 16.0 0.00 0.00 0.00 40 1010.1
20260505221037 49 294 5.0 14.0 0.00 0.00 0.00 40 1010.1
20260505220533 49 276 7.0 22.0 0.00 0.00 0.00 40 1010.1
20260505215532 49 267 9.0 20.0 0.00 0.00 0.00 40 1010.1
20260505215034 50 252 8.0 15.0 0.00 0.00 0.00 40 1010.1
20260505214532 49 267 6.0 15.0 0.00 0.00 0.00 41 1010.2
20260505214033 49 250 6.0 15.0 0.00 0.00 0.00 41 1010.1
20260505213532 49 272 5.0 14.0 0.00 0.00 0.00 41 1010.2
20260505213048 49 300 5.0 14.0 0.00 0.00 0.00 41 1010.2
20260505212535 49 240 6.0 13.0 0.00 0.00 0.00 40 1010.2
20260505212033 50 278 5.0 13.0 0.00 0.00 0.00 41 1010.2
20260505211531 50 292 5.0 13.0 0.00 0.00 0.00 41 1010.2
20260505211032 49 244 7.0 15.0 0.00 0.00 0.00 42 1010.2
20260505210533 49 247 5.0 19.0 0.00 0.00 0.00 43 1010.2
20260505205532 49 253 8.0 15.0 0.00 0.00 0.00 41 1010.3
20260505205032 49 294 7.0 15.0 0.00 0.00 0.00 40 1010.2
20260505204531 49 296 8.0 14.0 0.00 0.00 0.00 40 1010.2
20260505204033 49 272 6.0 18.0 0.00 0.00 0.00 40 1010.3
20260505203531 49 269 10.0 18.0 0.00 0.00 0.00 41 1010.3
20260505203042 49 248 8.0 20.0 0.00 0.00 0.00 41 1010.2
20260505202531 49 275 7.0 20.0 0.00 0.00 0.00 40 1010.3
20260505202030 49 241 7.0 15.0 0.00 0.00 0.00 39 1010.2
20260505201530 50 286 4.0 11.0 0.00 0.00 0.00 40 1010.2
20260505201030 50 254 5.0 11.0 0.00 0.00 0.00 39 1010.2
20260505200531 50 241 5.0 11.0 0.00 0.00 0.00 41 1010.3
20260505195531 50 267 4.0 16.0 0.00 0.00 0.00 40 1010.3
20260505195030 49 270 9.0 16.0 0.00 0.00 0.00 39 1010.3
20260505194530 49 273 6.0 16.0 0.00 0.00 0.00 39 1010.3
20260505194034 49 254 7.0 15.0 0.00 0.00 0.00 38 1010.3
20260505193531 51 275 8.0 15.0 0.00 0.00 0.00 38 1010.2
20260505193029 50 286 5.0 13.0 0.00 0.00 0.00 40 1010.3
20260505192532 50 234 4.0 17.0 0.00 0.00 0.00 38 1010.1
20260505192028 49 283 8.0 17.0 0.00 0.00 0.00 39 1010.2
20260505191528 50 233 6.0 19.0 0.00 0.00 0.00 39 1010.2
20260505191027 50 232 9.0 19.0 0.00 0.00 0.00 38 1010.2
20260505190529 50 275 4.0 14.0 0.00 0.00 0.00 37 1010.3
20260505185531 49 281 6.0 14.0 0.00 0.00 0.00 39 1010.4
20260505185028 49 285 6.0 14.0 0.00 0.00 0.00 38 1010.5
20260505184528 50 287 7.0 15.0 0.00 0.00 0.00 37 1010.4
20260505184027 50 245 6.0 15.0 0.00 0.00 0.00 40 1010.3
20260505183525 49 244 4.0 15.0 0.00 0.00 0.00 40 1010.3
20260505183025 49 233 8.0 15.0 0.00 0.00 0.00 41 1010.5
20260505182525 48 239 4.0 14.0 0.00 0.00 0.00 40 1010.3
20260505182027 48 257 6.0 15.0 0.00 0.00 0.00 38 1010.4
20260505181525 49 242 8.0 18.0 0.00 0.00 0.00 38 1010.4
20260505181025 49 265 9.0 18.0 0.00 0.00 0.00 38 1010.3
20260505180524 49 254 6.0 16.0 0.00 0.00 0.00 38 1010.3
20260505175522 49 242 6.0 13.0 0.00 0.00 0.00 39 1010.4
20260505175022 48 319 4.0 12.0 0.00 0.00 0.00 38 1010.4
20260505174521 47 290 4.0 11.0 0.00 0.00 0.00 40 1010.5
20260505174021 47 269 6.0 11.0 0.00 0.00 0.00 39 1010.5
20260505173520 47 269 4.0 9.0 0.00 0.00 0.00 39 1010.5
20260505173036 47 286 4.0 9.0 0.00 0.00 0.00 38 1010.5
20260505172519 47 290 1.0 11.0 0.00 0.00 0.00 38 1010.5
20260505172020 46 277 5.0 12.0 0.00 0.00 0.00 38 1010.5
20260505171520 46 292 5.0 15.0 0.00 0.00 0.00 37 1010.6
20260505171021 47 306 9.0 15.0 0.00 0.00 0.00 37 1010.5
20260505170518 47 288 3.0 11.0 0.00 0.00 0.00 38 1010.5
20260505165520 46 285 6.0 15.0 0.00 0.00 0.00 39 1010.5
20260505165020 46 288 5.0 12.0 0.00 0.00 0.00 38 1010.6
20260505164542 46 294 5.0 14.0 0.00 0.00 0.00 36 1010.5
20260505164020 47 296 5.0 18.0 0.00 0.00 0.00 35 1010.4
20260505163520 48 292 8.0 21.0 0.00 0.00 0.00 36 1010.5
20260505163019 47 244 8.0 21.0 0.00 0.00 0.00 35 1010.4
20260505162518 47 277 7.0 15.0 0.00 0.00 0.00 35 1010.5
20260505162018 46 296 7.0 15.0 0.00 0.00 0.00 38 1010.5
20260505161517 46 271 5.0 12.0 0.00 0.00 0.00 38 1010.4
20260505161017 46 285 5.0 12.0 0.00 0.00 0.00 37 1010.4
20260505160517 47 298 5.0 12.0 0.00 0.00 0.00 35 1010.4
20260505153012 46 286 5.0 15.0 0.00 0.00 0.00 39 1010.3
20260505152511 46 295 4.0 15.0 0.00 0.00 0.00 41 1010.3
20260505152007 46 257 4.0 12.0 0.00 0.00 0.00 42 1010.1
20260505151507 45 288 5.0 10.0 0.00 0.00 0.00 40 1010.3
20260505151006 45 294 4.0 11.0 0.00 0.00 0.00 41 1010.2
20260505150505 45 261 5.0 11.0 0.00 0.00 0.00 41 1010.2